User: anonymous   Login
Location: Unspecified
(0.0000°N, 0.0000°E)
Time: 05:19:11
(UTC+02:00)
Language:

Cosmos 773 Rocket - Orbit

View from above orbital plane
View from above orbital plane
View from above satellite
View from above satellite

Ground track
Ground track

The orbit data is extracted from the following two-line orbital elements,

1  8344U 75094B   17118.84079967 +.00000056 +00000-0 +26347-4 0  9999
2  8344 074.0578 216.5543 0020978 132.0074 228.2871 14.39087958178326
Epoch (UTC): 28 April 2017 20:10:45
Eccentricity: 0.0020978
inclination: 74.0578°
perigee height: 746 km
apogee height: 776 km
right ascension of ascending node: 216.5543°
argument of perigee: 132.0074°
revolutions per day: 14.39087958
mean anomaly at epoch: 228.2871°
orbit number at epoch: 17832

The dashed part of the orbit path shows where the satellite is in the earth's shadow,  

DLR